Showing default

COSMOS 2227, 22284

Orbit data source: Space-Track

COSMOS 2227, 22284 is a payload satellite owned by GRU (CIS) in LEO that was launched on Fri, 25 Dec 1992 UTC via a ZENIT-2 launch vehicle from the Tyuratam Missile And Space Complex (TTMTR). Payload-class satellites include a variety of spacecraft equipped with specific instruments for various scientific and technological missions. These include communications satellites like Starlink; space stations such as the ISS; scientific satellites like the Hubble; Earth observation satellites from companies like Planet Labs, Umbra, and HawkEye 360; GPS; miniature CubeSats for education and research; and military/defense satellites.

Loading next visibility...
Identifier
22284, 1992-093A
Orbit
LEO
Country
Flag of CISCIS
Related business
Manufacturer
Yuzhnoe
Mission
Defense Sigint
Bus & Motor
TSELINA-2, Unknown motor
Mass
3,250 kg wet, 3,250 kg dry
Launch date (UTC)
1992-12-25 (33 years ago)
Launch vehicle
ZENIT-2
Launch site
Tyuratam Missile And Space Complex (TTMTR)
Object type
Payload
Rocket body
Debris
Shape & HBR
Unknown shape, 9.5 m
Radar Cross Section
Large (>1 m²)

Expand to show TLE details & history
Last TLE update: 9 hours ago

TLE from 9 hours ago
0 COSMOS 2227
1 22284U 92093A   26132.77480543 -.00000280  00000-0 -12233-3 0  9999
2 22284  70.9793 257.4042 0021197 293.0445  66.8441 14.13776940721827
Epoch: 2026-05-12T18:35Z
TLE epoch observation values (Epoch: 2026-05-12T18:35:43.189Z)
Latitude
-0.00005°
Longitude
107.92988°
Altitude
842.878 km
Speed
7.435 km/s
True Right ascension
17h 09m 37s
True Declination
0° 00' 00"
Sunlit
Object was in full shadow at epoch
Visualization orbit readout
Latitude
Unknown
Longitude
Unknown
Altitude
Unknown
Speed
Unknown
Apparent Right ascension
Unknown
Apparent Declination
Unknown
Sunlit
N/A
Visualization observer readout
Local Sidereal Time
12:10:33
Azimuth
Unknown
Elevation
Unknown
Doppler factor
Unknown
Orbital elements
Apogee altitude
859.714 km
Perigee altitude
829.094 km
Semi-major axis
7,222.541 km
Eccentricity
0.00212
Inclination
70.9793°
RAAN
257.4042°
Arg. of periapsis
293.0445°
True anomaly
67.06766°
Mean anomaly
66.8441°
Eccentric anomaly
66.95586°
Mean motion
3.53597 °/min
Orbital period
101.81 mins
BSTAR
-0.00012233
Loading maneuver chart data...
Computing Atmospheric mass density...
Loading historical data...
Loading historical data...
Loading historical data...
Loading historical data...
Loading historical data...
Loading historical data...
Loading historical data...

Documentation

Showing up to 5 results
|